FW9731 Weather Reports


time (UTC)temp
C
wind
direction
speed
KPH
gust
KPH
rain 1hr
cm
rain 24hr
cm
rain mn
cm
humidity
%
barometer
mb
20260509174157 31 159 1.6 3.2 0.00 0.00 0.00 61 1012.1
20260509173653 31 106 1.6 3.2 0.00 0.00 0.00 60 1012.0
20260509173149 31 171 3.2 4.8 0.00 0.00 0.00 59 1012.1
20260509172646 30 163 1.6 1.6 0.00 0.00 0.00 66 1012.6
20260509172142 30 210 3.2 3.2 0.00 0.00 0.00 66 1012.6
20260509171638 30 199 0.0 0.0 0.00 0.00 0.00 66 1012.5
20260509171134 30 164 3.2 3.2 0.00 0.00 0.00 63 1012.4
20260509170631 30 90 0.0 0.0 0.00 0.00 0.00 63 1012.6
20260509170127 30 157 0.0 1.6 0.00 0.00 0.00 65 1012.6
20260509165625 30 179 0.0 0.0 0.00 0.00 0.00 66 1012.5
20260509165121 30 138 4.8 4.8 0.00 0.00 0.00 64 1012.4
20260509164617 30 182 3.2 3.2 0.00 0.00 0.00 65 1012.8
20260509164113 30 151 0.0 0.0 0.00 0.00 0.00 68 1012.7
20260509163611 30 185 3.2 3.2 0.00 0.00 0.00 69 1012.7
20260509163106 29 135 0.0 1.6 0.00 0.00 0.00 69 1012.6
20260509162604 28 162 1.6 1.6 0.00 0.00 0.00 70 1012.6
20260509162059 29 34 1.6 3.2 0.00 0.00 0.00 70 1012.6
20260509161551 28 223 1.6 1.6 0.00 0.00 0.00 73 1012.3
20260509161051 28 87 1.6 3.2 0.00 0.00 0.00 75 1012.3
20260509160547 27 148 0.0 0.0 0.00 0.00 0.00 77 1012.7
20260509160042 27 142 0.0 1.6 0.00 0.00 0.00 77 1012.5
20260509155539 27 227 3.2 3.2 0.00 0.00 0.00 77 1013.0
20260509155035 27 150 0.0 1.6 0.00 0.00 0.00 78 1012.8
20260509154531 26 162 0.0 0.0 0.00 0.00 0.00 80 1012.7
20260509154029 26 141 0.0 0.0 0.00 0.00 0.00 82 1012.6
20260509153526 26 157 0.0 0.0 0.00 0.00 0.00 84 1012.6
20260509153023 25 149 0.0 0.0 0.00 0.00 0.00 84 1012.9
20260509152518 25 121 0.0 1.6 0.00 0.00 0.00 84 1012.9
20260509152015 25 139 0.0 0.0 0.00 0.00 0.00 84 1012.9
20260509151512 25 162 0.0 0.0 0.00 0.00 0.00 84 1012.9
20260509151010 25 128 0.0 1.6 0.00 0.00 0.00 84 1012.9
20260509150507 25 146 0.0 1.6 0.00 0.00 0.00 84 1012.5
20260509150006 25 215 0.0 1.6 0.00 0.00 0.00 85 1012.4
20260509145501 25 166 0.0 1.6 0.00 0.00 0.00 86 1012.5
20260509144955 25 126 0.0 1.6 0.00 0.00 0.00 87 1012.2
20260509144453 24 157 0.0 0.0 0.00 0.00 0.00 88 1012.3
20260509143950 24 1 3.2 4.8 0.00 0.00 0.00 91 1012.6
20260509143447 23 286 3.2 4.8 0.00 0.00 0.00 95 1012.3
20260509142944 23 135 1.6 1.6 0.00 0.00 0.00 98 1012.4
20260509142440 23 346 3.2 3.2 0.00 0.00 0.00 99 1012.4
20260509141936 23 157 0.0 0.0 0.00 0.00 0.00 99 1011.9
20260509141432 22 165 0.0 1.6 0.00 0.00 0.00 99 1012.1
20260509140929 22 158 1.6 1.6 0.00 0.00 0.00 99 1012.5
20260509140426 22 155 1.6 1.6 0.00 0.00 0.00 99 1012.5
20260509135924 22 175 1.6 3.2 0.00 0.00 0.00 99 1012.5
20260509135421 22 139 1.6 1.6 0.00 0.00 0.00 99 1012.6
20260509134919 22 157 1.6 1.6 0.00 0.00 0.00 99 1012.5
20260509134416 22 150 0.0 0.0 0.00 0.00 0.00 99 1012.3
20260509133913 22 155 0.0 0.0 0.00 0.00 0.00 99 1012.0
20260509133409 21 217 3.2 3.2 0.00 0.00 0.00 99 1011.6
20260509132908 21 192 4.8 4.8 0.00 0.00 0.00 99 1011.8
20260509132406 21 141 0.0 0.0 0.00 0.00 0.00 99 1012.0
20260509131903 21 169 6.4 8.0 0.00 0.00 0.00 99 1011.7
20260509131359 21 174 1.6 1.6 0.00 0.00 0.00 99 1012.4
20260509130856 21 157 0.0 0.0 0.00 0.00 0.00 99 1011.6
20260509130351 21 152 0.0 0.0 0.00 0.00 0.00 99 1012.0
20260509125849 21 318 1.6 1.6 0.00 0.00 0.00 99 1011.6
20260509125345 21 160 0.0 0.0 0.00 0.00 0.00 99 1011.3
20260509124841 21 167 0.0 1.6 0.00 0.00 0.00 99 1011.3
20260509124338 21 138 0.0 0.0 0.00 0.00 0.00 99 1010.2
20260509123836 21 178 3.2 4.8 0.00 0.00 0.00 99 1010.4
20260509123333 21 154 0.0 1.6 0.00 0.00 0.00 99 1010.6
20260509122828 21 145 0.0 0.0 0.00 0.00 0.00 99 1010.5
20260509122326 21 90 1.6 3.2 0.00 0.00 0.00 99 1010.2
20260509121823 21 174 8.0 11.3 0.00 0.00 0.00 99 1009.9
20260509121320 21 173 6.4 8.0 0.00 0.00 0.00 99 1009.7
20260509120818 21 149 3.2 3.2 0.00 0.00 0.00 99 1009.7
20260509120316 21 259 3.2 4.8 0.00 0.00 0.00 99 1010.0
20260509115814 21 186 3.2 3.2 0.00 0.00 0.00 99 1010.3
20260509115310 21 207 3.2 4.8 0.00 0.00 0.00 99 1010.4
20260509114808 21 165 3.2 4.8 0.00 0.00 0.00 99 1010.6
20260509114307 21 244 4.8 8.0 0.00 0.00 0.00 99 1010.4
20260509113806 21 236 0.0 1.6 0.00 0.00 0.00 99 1010.5
20260509113302 21 155 8.0 11.3 0.00 0.00 0.00 99 1010.6
20260509112759 21 148 3.2 3.2 0.00 0.00 0.00 99 1010.9
20260509112256 21 152 3.2 3.2 0.00 0.00 0.00 99 1011.0
20260509111753 21 160 3.2 4.8 0.00 0.00 0.00 99 1011.0
20260509111250 21 252 4.8 4.8 0.00 0.00 0.00 99 1011.4
20260509110747 21 131 0.0 0.0 0.00 0.00 0.00 99 1011.3
20260509110244 21 150 1.6 1.6 0.00 0.00 0.00 99 1011.3
20260509105742 21 218 1.6 3.2 0.00 0.00 0.00 99 1011.4
20260509105239 21 170 1.6 3.2 0.00 0.00 0.00 99 1011.8
20260509104736 21 154 3.2 3.2 0.00 0.00 0.00 99 1012.2
20260509104233 21 165 1.6 1.6 0.00 0.00 0.00 99 1012.3
20260509103731 21 249 3.2 4.8 0.00 0.00 0.00 99 1012.1
20260509103228 21 207 3.2 3.2 0.00 0.00 0.00 99 1012.2
20260509102726 21 139 1.6 1.6 0.00 0.00 0.00 99 1012.0
20260509102223 21 190 0.0 0.0 0.00 0.00 0.00 99 1012.0
20260509101719 21 160 0.0 0.0 0.00 0.00 0.00 99 1012.0
20260509101216 21 158 0.0 0.0 0.00 0.00 0.00 99 1012.2
20260509100713 21 164 1.6 1.6 0.00 0.00 0.00 99 1012.4
20260509100210 21 162 0.0 0.0 0.00 0.00 0.00 99 1012.3
20260509095707 21 162 0.0 0.0 0.00 0.00 0.00 99 1012.5
20260509095204 21 161 0.0 0.0 0.00 0.00 0.00 99 1012.3
20260509094701 21 168 0.0 0.0 0.00 0.00 0.00 99 1012.4
20260509094158 21 159 0.0 0.0 0.00 0.00 0.00 99 1012.3
20260509093656 21 159 0.0 0.0 0.00 0.00 0.00 99 1012.3
20260509093153 21 158 0.0 0.0 0.00 0.00 0.00 99 1012.2
20260509092651 21 163 0.0 0.0 0.00 0.00 0.00 99 1011.9
20260509092149 21 159 0.0 0.0 0.00 0.00 0.00 99 1012.2
20260509091647 21 163 0.0 0.0 0.00 0.00 0.00 99 1012.3
20260509091143 21 171 0.0 0.0 0.00 0.00 0.00 99 1012.7
20260509090641 21 163 0.0 0.0 0.00 0.00 0.00 99 1012.7
20260509090138 21 158 0.0 0.0 0.00 0.00 0.00 99 1012.7
20260509085635 21 151 0.0 0.0 0.00 0.00 0.00 99 1012.5
20260509085131 21 161 0.0 0.0 0.00 0.00 0.00 99 1012.2
20260509084628 21 157 0.0 0.0 0.00 0.00 0.00 99 1012.5
20260509084125 21 146 0.0 0.0 0.00 0.00 0.00 99 1012.5
20260509083623 21 168 0.0 0.0 0.00 0.00 0.00 99 1012.4
20260509083119 21 163 0.0 0.0 0.00 0.00 0.00 99 1012.2
20260509082617 21 164 0.0 0.0 0.00 0.00 0.00 99 1012.5
20260509082113 21 157 0.0 0.0 0.00 0.00 0.00 99 1012.4
20260509081610 21 152 0.0 0.0 0.00 0.00 0.00 99 1012.4
20260509081107 21 156 0.0 0.0 0.00 0.00 0.00 99 1012.6
20260509080606 21 189 1.6 3.2 0.00 0.00 0.00 99 1012.6
20260509075601 21 169 3.2 3.2 0.00 0.00 0.00 99 1012.8
20260509075058 21 178 1.6 1.6 0.00 0.00 0.00 99 1012.6
20260509074555 21 171 1.6 3.2 0.00 0.00 0.00 99 1012.3
20260509074051 21 165 1.6 3.2 0.00 0.00 0.00 99 1011.9
20260509073548 21 160 1.6 1.6 0.00 0.00 0.00 99 1012.2
20260509073045 21 174 3.2 4.8 0.00 0.00 0.00 99 1012.5
20260509072541 21 155 0.0 0.0 0.00 0.00 0.00 99 1012.2
20260509072038 21 176 3.2 3.2 0.00 0.00 0.00 99 1012.4
20260509071535 21 159 0.0 0.0 0.00 0.00 0.00 99 1012.6
20260509071033 21 159 0.0 0.0 0.00 0.00 0.00 99 1012.6
20260509070529 21 151 0.0 0.0 0.00 0.00 0.00 99 1012.6
20260509070025 20 156 0.0 0.0 0.00 0.00 0.00 99 1012.4
20260509065521 20 158 0.0 0.0 0.00 0.00 0.00 99 1012.6
20260509065017 20 161 0.0 0.0 0.00 0.00 0.00 99 1012.8
20260509064515 20 162 0.0 0.0 0.00 0.00 0.00 99 1012.4
20260509064013 20 159 0.0 0.0 0.00 0.00 0.00 99 1012.5
20260509063508 20 162 0.0 0.0 0.00 0.00 0.00 99 1012.5
20260509063006 20 167 1.6 1.6 0.00 0.00 0.00 99 1012.7
20260509062503 20 163 0.0 0.0 0.00 0.00 0.00 99 1012.3
20260509062001 20 163 0.0 0.0 0.00 0.00 0.00 99 1012.4
20260509061457 20 165 0.0 0.0 0.00 0.00 0.00 99 1012.2
20260509060954 20 156 0.0 0.0 0.00 0.00 0.00 99 1011.7
20260509060452 19 168 0.0 0.0 0.00 0.00 0.00 99 1011.8
20260509055947 19 165 0.0 0.0 0.00 0.00 0.00 99 1011.7
20260509055443 19 162 0.0 0.0 0.00 0.00 0.00 99 1011.5
20260509054939 19 162 0.0 0.0 0.00 0.00 0.00 99 1011.5
20260509054436 19 163 0.0 0.0 0.00 0.00 0.00 99 1011.7
20260509053934 19 163 0.0 0.0 0.00 0.00 0.00 99 1011.7
20260509053432 18 164 0.0 0.0 0.00 0.00 0.00 99 1011.9
20260509052929 18 163 0.0 0.0 0.00 0.00 0.00 99 1011.9
20260509052427 18 164 0.0 0.0 0.00 0.00 0.00 99 1012.0
20260509051925 18 162 0.0 0.0 0.00 0.00 0.00 99 1012.3
20260509051422 18 161 0.0 0.0 0.00 0.00 0.00 99 1012.1
20260509050919 18 161 0.0 0.0 0.00 0.00 0.00 99 1012.0
20260509050415 18 161 0.0 0.0 0.00 0.00 0.00 99 1012.2
20260509045912 18 162 0.0 0.0 0.00 0.00 0.00 99 1012.1
20260509045409 18 163 0.0 0.0 0.00 0.00 0.00 99 1012.1
20260509044906 18 163 0.0 0.0 0.00 0.00 0.00 99 1012.2
20260509044404 18 164 0.0 0.0 0.00 0.00 0.00 99 1012.4
20260509043901 18 159 0.0 0.0 0.00 0.00 0.00 99 1012.2
20260509043356 18 165 0.0 0.0 0.00 0.00 0.00 99 1012.1
20260509042852 18 165 0.0 0.0 0.00 0.00 0.00 99 1012.1
20260509042349 18 165 0.0 0.0 0.00 0.00 0.00 99 1012.1
20260509041846 18 165 0.0 0.0 0.00 0.00 0.00 99 1011.8
20260509041343 19 169 0.0 0.0 0.00 0.00 0.00 99 1012.0
20260509040841 18 165 0.0 0.0 0.00 0.00 0.00 99 1011.8
20260509040338 19 165 0.0 0.0 0.00 0.00 0.00 99 1011.8
20260509035835 19 175 0.0 0.0 0.00 0.00 0.00 99 1011.7
20260509035332 19 169 0.0 0.0 0.00 0.00 0.00 99 1011.7
20260509034828 19 166 0.0 0.0 0.00 0.00 0.00 99 1011.5
20260509034327 19 164 0.0 0.0 0.00 0.00 0.00 99 1011.5
20260509033823 19 164 0.0 0.0 0.00 0.00 0.00 99 1010.9
20260509033320 19 164 0.0 0.0 0.00 0.00 0.00 99 1011.0
20260509032817 20 164 0.0 0.0 0.00 0.00 0.00 99 1011.4
20260509032314 20 163 0.0 0.0 0.00 0.00 0.00 99 1011.2
20260509031812 20 161 0.0 0.0 0.00 0.00 0.00 99 1011.2
20260509031309 20 161 0.0 0.0 0.00 0.00 0.00 99 1011.0
20260509030807 20 159 0.0 0.0 0.00 0.00 0.00 99 1010.9
20260509030304 20 159 0.0 0.0 0.00 0.00 0.00 99 1011.0
20260509025801 20 177 0.0 0.0 0.00 0.00 0.00 99 1011.0
20260509025256 20 187 0.0 0.0 0.00 0.00 0.00 99 1010.8
20260509024752 20 182 0.0 0.0 0.00 0.00 0.00 99 1010.7
20260509024248 20 161 0.0 0.0 0.00 0.00 0.00 99 1010.5
20260509023746 21 160 0.0 0.0 0.00 0.00 0.00 99 1010.6
20260509023243 21 160 0.0 0.0 0.00 0.00 0.00 99 1010.7
20260509022739 21 160 0.0 0.0 0.00 0.00 0.00 99 1010.5
20260509022237 21 160 0.0 0.0 0.00 0.00 0.00 99 1010.7
20260509021733 21 162 0.0 0.0 0.00 0.00 0.00 98 1010.5
20260509021230 21 162 0.0 0.0 0.00 0.00 0.00 98 1010.3
20260509020728 21 162 0.0 0.0 0.00 0.00 0.00 98 1010.2
20260509020225 21 163 0.0 0.0 0.00 0.00 0.00 98 1010.3
20260509015723 21 162 0.0 0.0 0.00 0.00 0.00 97 1010.3
20260509015222 22 163 0.0 0.0 0.00 0.00 0.00 97 1010.2
20260509014718 22 163 0.0 0.0 0.00 0.00 0.00 97 1010.3
20260509014215 22 163 0.0 0.0 0.00 0.00 0.00 97 1010.4
20260509013711 22 162 0.0 0.0 0.00 0.00 0.00 96 1010.5
20260509013207 22 162 0.0 0.0 0.00 0.00 0.00 96 1010.6
20260509012704 22 161 0.0 0.0 0.00 0.00 0.00 96 1010.2
20260509012200 22 160 0.0 0.0 0.00 0.00 0.00 95 1010.1
20260509011658 22 160 0.0 0.0 0.00 0.00 0.00 95 1010.1
20260509011155 22 160 0.0 0.0 0.00 0.00 0.00 95 1010.2
20260509010653 22 159 0.0 0.0 0.00 0.00 0.00 94 1010.3
20260509010149 22 158 0.0 0.0 0.00 0.00 0.00 94 1010.5
20260509005647 22 172 0.0 0.0 0.00 0.00 0.00 94 1010.6
20260509005143 23 157 0.0 0.0 0.00 0.00 0.00 93 1010.4
20260509004639 23 161 0.0 0.0 0.00 0.00 0.00 93 1010.4
20260509004136 23 161 0.0 0.0 0.00 0.00 0.00 93 1010.1
20260509003635 23 161 0.0 0.0 0.00 0.00 0.00 92 1010.2
20260509003132 23 161 0.0 0.0 0.00 0.00 0.00 92 1010.3
20260509002629 23 157 0.0 0.0 0.00 0.00 0.00 92 1010.4
20260509002126 23 162 0.0 0.0 0.00 0.00 0.00 92 1010.5
20260509001624 23 160 0.0 0.0 0.00 0.00 0.00 91 1010.3
20260509001119 23 184 3.2 3.2 0.00 0.00 0.00 91 1010.2
20260509000618 23 171 0.0 1.6 0.00 0.00 0.00 91 1010.4
20260509000114 23 157 0.0 0.0 0.00 0.00 0.00 91 1010.2
20260508235612 23 158 0.0 0.0 0.00 0.00 0.00 90 1010.2
20260508235108 23 161 1.6 1.6 0.00 0.00 0.00 90 1010.2
20260508234606 23 178 1.6 1.6 0.00 0.00 0.00 90 1010.4
20260508234102 23 158 0.0 0.0 0.00 0.00 0.00 90 1010.3
20260508233601 23 175 4.8 4.8 0.00 0.00 0.00 89 1010.7
20260508233058 23 193 1.6 1.6 0.00 0.00 0.00 89 1010.7
20260508232555 23 188 1.6 1.6 0.00 0.00 0.00 89 1010.3
20260508232052 23 193 3.2 3.2 0.00 0.00 0.00 89 1010.3
20260508231550 23 157 0.0 0.0 0.00 0.00 0.00 88 1010.3
20260508231046 24 165 3.2 4.8 0.00 0.00 0.00 87 1010.4
20260508230543 24 156 0.0 0.0 0.00 0.00 0.00 88 1010.7
20260508230040 24 156 0.0 0.0 0.00 0.00 0.00 87 1010.6
20260508225537 24 155 0.0 0.0 0.00 0.00 0.00 88 1010.7
20260508225033 24 169 0.0 1.6 0.00 0.00 0.00 87 1010.7
20260508224532 24 155 0.0 0.0 0.00 0.00 0.00 87 1010.5
20260508224029 25 146 3.2 3.2 0.00 0.00 0.00 86 1010.5
20260508223527 25 158 0.0 0.0 0.00 0.00 0.00 86 1010.6
20260508223023 25 308 1.6 3.2 0.00 0.00 0.00 86 1010.5
20260508222521 24 172 1.6 1.6 0.00 0.00 0.00 87 1010.9
20260508222017 24 148 0.0 0.0 0.00 0.00 0.00 87 1010.6
20260508221514 24 156 0.0 0.0 0.00 0.00 0.00 87 1011.0
20260508221010 24 151 0.0 1.6 0.00 0.00 0.00 86 1011.0
20260508220507 24 158 0.0 0.0 0.00 0.00 0.00 87 1011.0
20260508220002 24 156 0.0 0.0 0.00 0.00 0.00 89 1010.9
20260508215459 23 155 0.0 0.0 0.00 0.00 0.00 88 1011.3
20260508214956 23 160 0.0 1.6 0.00 0.00 0.00 87 1011.7
20260508214454 23 168 1.6 1.6 0.00 0.00 0.00 87 1011.4
20260508213950 23 154 0.0 0.0 0.00 0.00 0.00 88 1011.4
20260508213448 24 127 1.6 1.6 0.00 0.00 0.00 87 1011.2
20260508212942 23 153 0.0 0.0 0.00 0.00 0.00 88 1011.4
20260508212440 23 148 0.0 0.0 0.00 0.00 0.00 88 1011.5
20260508211935 23 149 0.0 0.0 0.00 0.00 0.00 88 1011.7
20260508211431 23 151 0.0 0.0 0.00 0.00 0.00 88 1011.4
20260508210929 23 141 0.0 1.6 0.00 0.00 0.00 88 1012.1
20260508210425 23 165 1.6 1.6 0.00 0.00 0.00 88 1012.2
20260508205922 23 161 0.0 0.0 0.00 0.00 0.00 89 1012.3
20260508205419 23 163 0.0 0.0 0.00 0.00 0.00 88 1012.2
20260508204915 23 161 0.0 1.6 0.00 0.00 0.00 88 1012.2
20260508204413 23 154 0.0 1.6 0.00 0.00 0.00 88 1012.1
20260508203908 23 227 0.0 1.6 0.00 0.00 0.00 88 1012.3
20260508203404 22 153 0.0 0.0 0.00 0.00 0.00 88 1012.5
20260508202900 22 188 1.6 3.2 0.00 0.00 0.00 87 1012.6
20260508202357 22 163 1.6 1.6 0.00 0.00 0.00 87 1012.5
20260508201855 23 164 1.6 1.6 0.00 0.00 0.00 87 1012.4
20260508201351 23 165 0.0 1.6 0.00 0.00 0.00 87 1012.5
20260508200847 23 163 4.8 4.8 0.00 0.00 0.00 85 1012.4
20260508200345 23 154 0.0 1.6 0.00 0.00 0.00 86 1012.6
20260508195840 23 153 0.0 0.0 0.00 0.00 0.00 85 1012.6
20260508195337 23 165 0.0 0.0 0.00 0.00 0.00 85 1012.6
20260508194833 23 143 0.0 0.0 0.00 0.00 0.00 85 1012.6
20260508194331 23 154 0.0 0.0 0.00 0.00 0.00 85 1012.7
20260508193827 23 149 0.0 0.0 0.00 0.00 0.00 85 1012.8
20260508193324 23 146 0.0 0.0 0.00 0.00 0.00 86 1013.0
20260508192820 23 140 0.0 1.6 0.00 0.00 0.00 85 1012.8
20260508192318 23 159 0.0 0.0 0.00 0.00 0.00 86 1012.9
20260508191815 22 148 0.0 0.0 0.00 0.00 0.00 87 1012.9
20260508191312 22 216 3.2 3.2 0.00 0.00 0.00 87 1013.2
20260508190809 22 154 0.0 0.0 0.00 0.00 0.00 89 1013.2
20260508190305 21 154 0.0 0.0 0.00 0.00 0.00 89 1013.5
20260508185802 21 150 0.0 0.0 0.00 0.00 0.00 90 1013.5
20260508185259 21 152 0.0 0.0 0.00 0.00 0.00 90 1013.3
20260508184756 21 153 0.0 0.0 0.00 0.00 0.00 90 1013.2
20260508184254 21 150 0.0 0.0 0.00 0.00 0.00 91 1013.5
20260508183750 21 151 0.0 0.0 0.00 0.00 0.00 91 1013.7
20260508183247 21 153 0.0 0.0 0.00 0.00 0.00 92 1013.6
20260508182743 20 143 0.0 0.0 0.00 0.00 0.00 92 1013.7
20260508182239 20 147 0.0 0.0 0.00 0.00 0.00 92 1013.7
20260508181735 20 152 0.0 0.0 0.00 0.00 0.00 93 1014.0
20260508181232 20 152 0.0 0.0 0.00 0.00 0.00 93 1013.9
20260508180729 20 152 0.0 0.0 0.00 0.00 0.00 93 1013.9
20260508180226 20 142 0.0 0.0 0.00 0.00 0.00 93 1014.0
20260508175722 19 152 0.0 0.0 0.00 0.00 0.00 93 1014.1
20260508175219 19 149 0.0 0.0 0.00 0.00 0.00 94 1014.6
20260508174717 20 150 0.0 0.0 0.00 0.00 0.00 94 1014.4